Jacksonville Craig, FL

2:23 AM EDT on April 27, 2017 (GMT -0400)
Craig Municipal

Weather History for KCRG - March, 2013

Change the Weather History Date:

Thursday, March 7, 2013

  Actual Average Record
Temperature  
Mean Temperature 50 °F -  
Max Temperature 62 °F 68 °F 82 °F (2004)
Min Temperature 39 °F 49 °F 39 °F (2013)
Degree Days  
Heating Degree Days 14    
Moisture  
Dew Point 35 °F    
Average Humidity 62    
Maximum Humidity 86    
Minimum Humidity 31    
Precipitation  
Precipitation 0.00 in - - ()
Sea Level Pressure  
Sea Level Pressure 30.20 in    
Wind  
Wind Speed 8 mph (North)    
Max Wind Speed 13 mph    
Max Gust Speed 16 mph    
Visibility 10 miles    
Events      
Averages and records for this station are not official NWS values.
T = Trace of Precipitation, MM = Missing Value Source: NWS Daily Summary

Daily Weather History Graph

Daily Weather History Graph

Search for Another Location

Airport or City:

Trip Planner

Search our weather history database for the weather conditions in past years. The results will help you decide how hot, cold, wet, or windy it might be!

Date:

Astronomy

Mar. 07, 2013 Rise Set
Actual Time 6:45 AM EST 6:29 PM EST
Civil Twilight 6:21 AM EST 6:53 PM EST
Nautical Twilight 5:53 AM EST 7:21 PM EST
Astronomical Twilight 5:25 AM EST 7:48 PM EST
Moon 3:28 AM EST (3/7) 2:29 PM EST (3/7)
Length of Visible Light 12h 32m
Length of Day
11h 44m
Waning Crescent, 20% of the Moon is Illuminated
Mar 7
Waning Crescent
Mar 11
New
Mar 19
First Quarter
Mar 27
Full
Apr 3
Last Quarter

Hourly Weather History & Observations

Time (EST) Temp. Windchill Dew Point Humidity Pressure Visibility Wind Dir Wind Speed Gust Speed Precip Events Conditions
12:53 AM 44.1 °F 37.7 °F 28.9 °F 55% 30.15 in 10.0 mi NNW 12.7 mph 16.1 mph N/A   Clear
1:53 AM 43.0 °F 36.8 °F 28.9 °F 58% 30.17 in 10.0 mi NNW 11.5 mph - N/A   Clear
2:53 AM 42.1 °F 37.7 °F 30.0 °F 62% 30.16 in 10.0 mi NNW 6.9 mph - N/A   Clear
3:53 AM 41.0 °F 35.8 °F 30.0 °F 65% 30.16 in 10.0 mi NNW 8.1 mph - N/A   Clear
4:53 AM 39.9 °F 33.9 °F 30.0 °F 68% 30.18 in 10.0 mi NNW 9.2 mph - N/A   Clear
5:53 AM 39.0 °F 34.0 °F 30.0 °F 70% 30.19 in 10.0 mi North 6.9 mph - N/A   Clear
6:53 AM 39.0 °F 31.8 °F 30.0 °F 70% 30.20 in 10.0 mi North 11.5 mph - N/A   Clear
7:53 AM 41.0 °F 34.7 °F 30.0 °F 65% 30.22 in 10.0 mi NNW 10.4 mph - N/A   Clear
8:53 AM 45.0 °F 40.1 °F 32.0 °F 60% 30.23 in 10.0 mi NNE 9.2 mph - N/A   Clear
9:53 AM 50.0 °F - 35.1 °F 57% 30.25 in 10.0 mi NNE 6.9 mph - N/A   Clear
10:53 AM 53.1 °F - 37.0 °F 55% 30.25 in 10.0 mi North 8.1 mph - N/A   Clear
11:53 AM 54.0 °F - 35.1 °F 49% 30.24 in 10.0 mi Calm Calm - N/A   Clear
12:53 PM 55.9 °F - 35.1 °F 45% 30.22 in 10.0 mi North 3.5 mph - N/A   Clear
1:53 PM 59.0 °F - 33.1 °F 38% 30.20 in 10.0 mi North 5.8 mph - N/A   Clear
2:53 PM 62.1 °F - 30.9 °F 31% 30.17 in 10.0 mi West 5.8 mph - N/A   Clear
3:53 PM 59.0 °F - 41.0 °F 51% 30.17 in 10.0 mi East 8.1 mph - N/A   Clear
4:53 PM 59.0 °F - 39.9 °F 49% 30.16 in 10.0 mi East 5.8 mph - N/A   Clear
5:53 PM 57.0 °F - 39.9 °F 53% 30.17 in 10.0 mi East 4.6 mph - N/A   Clear
6:53 PM 52.0 °F - 42.1 °F 69% 30.19 in 10.0 mi Calm Calm - N/A   Clear
7:53 PM 48.9 °F - 42.1 °F 77% 30.20 in 10.0 mi Calm Calm - N/A   Clear
8:53 PM 46.9 °F - 41.0 °F 80% 30.22 in 10.0 mi Calm Calm - N/A   Clear
9:53 PM 45.0 °F - 39.9 °F 82% 30.22 in 10.0 mi Calm Calm - N/A   Clear
10:53 PM 45.0 °F - 39.9 °F 82% 30.22 in 9.0 mi Calm Calm - N/A   Clear
11:53 PM 43.0 °F - 39.0 °F 86% 30.22 in 8.0 mi Calm Calm - N/A   Clear